Location: Austin, TX
(30.3000°N, 97.7500°W)
Time: 05:32:55
(UTC-05:00)

Daily predictions for brighter satellites

Satellite Brightness Start Highest point End
(mag) Time Altitude Azimuth Time Altitude Azimuth Time Altitude Azimuth
USA 234 4.3 00:06:23 10° NNE 00:12:22 40° NW 00:17:44 13° WSW
Cosmos 1833 Rocket 4.3 00:12:27 10° NNW 00:15:24 29° NW 00:15:24 29° NW
Terra 4.4 00:31:14 15° NW 00:31:14 15° NW 00:32:22 10° NW
Cosmos 2082 Rocket 4.5 00:34:53 10° NW 00:36:43 17° WNW 00:36:43 17° WNW
Lacrosse 5 4.5 00:56:43 17° NNW 00:56:43 17° NNW 00:58:34 10° N
Cosmos 2369 Rocket 4.4 01:23:58 20° NNW 01:23:58 20° NNW 01:26:18 10° N
ATLAS 2AS CENTAUR R/B 3.7 01:39:46 10° NNW 01:46:07 47° NNE 01:46:07 47° NNE
Cosmos 1943 Rocket 4.4 02:00:08 20° NNW 02:00:08 20° NNW 02:02:06 10° N
Cosmos 1697 Rocket 4.3 03:08:37 28° ENE 03:08:37 28° ENE 03:11:54 10° NE
Cosmos 1980 Rocket 4.0 03:16:24 22° E 03:16:24 22° E 03:19:48 10° NE
Milstar 3 Cent rocket 4.0 03:25:01 23° E 03:25:01 23° E 03:27:33 10° E
ATLAS CENTAUR R/B 3.6 03:24:30 30° NNE 03:24:30 30° NNE 03:27:01 10° NNE
Cosmos 2227 Rocket 3.2 03:20:49 10° NNW 03:24:42 42° N 03:24:42 42° N
Cosmos 1464 Rocket 4.5 03:34:17 53° NNW 03:34:17 53° NNW 03:39:07 10° N
ARIANE 5 R/B 3.8 03:31:10 10° NNE 03:34:58 37° ENE 03:34:58 37° ENE
Meteor 2-5 Rocket 4.3 03:30:38 10° N 03:35:17 56° NNE 03:35:17 56° NNE
Resurs 1-4 Rocket 3.4 03:34:24 10° NE 03:38:40 33° E 03:38:40 33° E
ADEOS 4.5 03:34:19 10° NNE 03:37:55 45° NNE 03:37:55 45° NNE
Cosmos 2297 Rocket 2.6 03:42:08 10° NNW 03:47:01 58° NNE 03:47:01 58° NNE
SL-16 R/B 4.1 03:58:54 17° SE 04:00:42 20° E 04:04:41 10° NE
IRS-1D 3.8 03:59:13 10° NNE 04:03:24 62° NE 04:03:24 62° NE
GPS 2-04 Rocket1 4.4 04:11:33 31° NNE 04:11:33 31° NNE 04:14:13 10° ENE
Meteor 1-22 Rocket 4.4 04:13:12 66° WNW 04:13:12 66° WNW 04:19:01 10° N
UNKNOWN OBJECT B 4.2 04:12:38 10° NNE 04:15:21 36° NE 04:15:21 36° NE
Meteor 1-24 Rocket 3.6 04:12:41 10° N 04:18:29 82° W 04:18:44 80° SW
SL-24 R/B 4.5 04:19:04 73° N 04:19:04 73° N 04:23:17 10° N
Cosmos 1758 4.2 04:22:23 48° NE 04:22:23 48° NE 04:25:29 10° NNE
EO 1 Del DPAF 4.3 04:22:37 45° NE 04:22:37 45° NE 04:25:56 10° N
Cosmos 990 Rocket 3.9 04:18:41 10° NNW 04:23:58 87° E 04:24:09 83° SE
Cosmos 1953 3.0 04:26:54 53° NNE 04:26:54 53° NNE 04:30:05 10° N
Cosmos 1805 4.1 04:27:09 49° NE 04:27:09 49° NE 04:30:12 10° NNE
Okean O Rocket 3.0 04:23:27 10° NE 04:27:26 33° E 04:28:34 29° SE
Cosmos 1441 Rocket 4.2 04:24:09 10° N 04:27:05 47° N 04:27:05 47° N
Cosmos-2242 3.2 04:29:53 66° NNE 04:29:53 66° NNE 04:33:37 10° N
Spot 3 4.5 04:26:53 10° N 04:32:13 83° WNW 04:32:49 71° SW
SME Rocket 3.8 04:31:25 63° SSW 04:32:14 73° WSW 04:39:39 10° NNW
ATLAS CENTAUR R/B 4.1 04:30:37 43° SSW 04:34:18 88° ESE 04:59:46 10° NE
CZ-2D R/B 2.2 04:34:39 10° N 04:40:00 58° WNW 04:40:28 56° W
Cosmos 1408 Rocket 3.8 04:35:53 10° NNW 04:39:34 57° NW 04:39:34 57° NW
DELTA 2 R/B (1) 3.7 04:40:38 52° S 04:41:23 57° SSE 04:46:51 10° ENE
ASTRO E2 3.8 04:44:01 35° SE 04:44:01 35° SE 04:46:31 10° ESE
SL-16 R/B 2.4 04:41:26 43° SSW 04:43:26 68° WSW 04:49:35 10° NNW
Cosmos 1544 3.5 04:43:51 61° E 04:43:51 61° E 04:47:20 10° NNE
Cosmos 1766 Rocket 3.6 04:39:30 10° NNW 04:43:27 63° WNW 04:43:27 63° WNW
IRS-1C Rocket 4.3 04:41:36 10° NNE 04:46:50 68° ESE 04:49:02 35° S
MTI 4.4 04:49:25 56° NNE 04:49:25 56° NNE 04:52:12 10° N
Nadezhda 4 Rocket 4.2 04:43:26 10° NNW 04:49:17 45° W 04:50:07 43° WSW
Cosmos 1697 Rocket 4.0 04:50:22 24° WNW 04:50:46 24° WNW 04:55:20 10° N
MOS 1-B 4.4 04:45:27 10° N 04:51:10 61° WNW 04:52:43 45° SW
In-Cosmos 22 3.9 04:48:36 10° N 04:53:54 86° W 04:56:51 27° S
GEOS 3 Rocket 3.8 04:51:17 10° SE 04:56:28 73° ENE 05:01:39 10° NNW
Cosmos 1125 Rocket 3.7 04:51:45 10° N 04:56:57 69° ENE 05:02:06 10° SSE
Cosmos 1437 3.0 04:53:49 10° N 04:57:09 69° E 04:57:16 68° E
Cosmos 1655 Rocket 4.3 04:51:18 10° N 04:57:41 71° E 05:04:02 10° SSE
Meteor 1-21 Rocket 4.3 04:52:59 10° N 04:58:56 84° E 05:04:51 10° S
Cosmos 1980 Rocket 2.9 04:58:11 33° W 04:59:07 35° WNW 05:04:16 10° N
Cosmos 332 Rocket 3.7 04:58:17 52° SW 04:59:21 71° WNW 05:04:11 10° N
Cosmos 1842 Rocket 3.5 04:58:15 47° S 04:59:33 89° W 05:04:03 10° N
Cosmos 2360 Rocket 4.1 04:55:28 10° SSE 04:59:54 24° ESE 05:04:21 10° NE
NOSS 3-4 (A) 3.8 04:54:27 10° NW 05:01:27 57° WSW 05:08:48 10° S
NOSS 3-4 (C) 3.9 04:54:34 10° NW 05:01:35 58° WSW 05:08:58 10° SSE
Aureole 1 Rocket 3.8 04:59:47 35° SSW 05:02:18 87° WNW 05:09:23 10° NNE
RESURS DK-1 4.2 05:03:26 10° N 05:07:08 31° ENE 05:10:50 10° SE
Cosmos 1674 3.6 05:04:28 10° N 05:08:06 46° E 05:11:41 10° SSE
CZ-4B DEB 4.3 05:04:16 10° NNE 05:09:48 74° ESE 05:13:58 18° S
Cosmos 2322 Rocket 2.1 05:08:13 32° SSW 05:10:53 79° WNW 05:16:30 10° NNE
Okean-O 4.2 05:08:40 10° NNE 05:12:40 33° E 05:16:41 10° SSE
CZ-2D R/B 4.1 05:08:45 10° N 05:12:53 42° WNW 05:13:44 37° WSW
ARIANE 5 R/B 4.1 05:11:25 10° NNW 05:14:47 18° WNW 05:15:18 18° WNW
Resurs 1-4 Rocket 3.4 05:14:42 10° NNW 05:18:43 23° WNW 05:19:45 21° W
Cosmos 371 Rocket 3.2 05:16:54 32° SSW 05:19:04 68° WNW 05:23:51 10° N
ISS -3.3 05:16:19 10° NW 05:19:33 78° NE 05:22:48 10° SE
Cosmos 2180 Rocket 4.5 05:15:09 17° S 05:20:15 78° W 05:26:40 10° N
Cosmos 2026 Rocket 3.9 05:14:07 10° NNW 05:20:23 68° W 05:26:31 10° S
Cosmos 1461 4.1 05:17:01 10° NNW 05:20:53 42° ENE 05:24:37 10° SE
Cosmos 1470 2.8 05:21:40 35° SW 05:23:02 57° W 05:26:56 10° N
CZ-3 Stage 3 3.9 04:44:10 10° W 05:23:54 86° SSW 05:29:47 10° ESE
Cosmos 540 Rocket 4.2 05:22:45 28° WSW 05:24:34 36° WNW 05:29:20 10° N
Thor Agena Rocket 3.5 05:28:40 10° SSE 05:33:42 83° ENE 05:38:45 10° NNW
SWIFT 4.5 05:36:53 11° S 05:36:53 11° S 05:37:51 10° S
CZ-2C R/B 3.9 05:35:13 10° S 05:39:47 50° W 05:44:18 10° NNW
SWAS 4.4 05:37:59 19° SSW 05:40:56 72° WNW 05:45:13 10° NNE
CZ-4B R/B 3.2 05:38:15 10° N 05:41:52 40° WNW 05:43:55 21° SW
Cosmos 2151 3.0 05:38:53 10° N 05:43:13 85° E 05:47:30 10° S
SL-16 R/B 2.7 05:40:48 19° SW 05:44:25 41° WNW 05:49:45 10° N
Cosmos 1538 Rocket 4.2 05:41:29 16° SSW 05:45:34 57° WNW 05:50:48 10° N
Cosmos 923 Rocket 4.4 05:45:11 10° S 05:50:21 65° ESE 05:55:30 10° NNE
GPS 2-04 Rocket1 3.3 05:46:58 10° WNW 05:50:51 52° NNE 05:54:30 10° E
Cosmos 1500 Rocket 4.3 05:47:28 10° NNW 05:51:19 31° W 05:54:59 11° SSW
COSMOS 2428 4.4 05:47:06 10° SSE 05:52:04 33° ESE 05:57:03 10° NE
CSL-04 DEB 4.3 05:50:33 10° N 05:54:29 83° WNW 05:58:26 10° SSW
Abrixas 3.5 05:53:03 10° NW 05:56:01 49° NE 05:59:00 10° ESE
Cosmos 2228 Rocket 4.4 05:52:35 10° SSE 05:56:48 43° E 06:01:04 10° NNE
Milstar 3 Cent rocket 3.0 05:53:53 10° W 05:59:32 70° S 06:10:32 10° ESE
Delta 128 3.7 05:56:14 14° WSW 06:00:05 66° S 06:05:03 10° E
Meteor 1-31 Rocket 3.7 05:56:26 10° NNE 06:00:13 49° E 06:03:57 10° S
Cosmos 2322 3.7 05:57:22 10° SSW 06:03:05 85° WNW 06:08:50 10° NNE
Okean O Rocket 3.4 06:00:47 10° NNW 06:03:30 16° WNW 06:06:01 11° WSW
Aurora 2 Rocket 3.3 06:02:01 14° SW 06:03:40 20° S 06:06:10 10° SE
Cosmos 2263 Rocket 2.9 05:59:10 10° N 06:04:39 58° ENE 06:10:06 10° SSE
Cosmos 773 Rocket 4.0 06:01:21 10° SSW 06:06:25 63° WNW 06:11:34 10° N
Cosmos 2221 3.0 06:03:54 10° SSW 06:07:55 40° W 06:11:58 10° N
CZ-4B R/B 4.3 06:04:47 10° NNW 06:09:13 26° WNW 06:13:35 10° WSW
OTV 4 3.2 06:10:35 10° SSE 06:11:29 11° SE 06:12:22 10° SE
Cosmos 1328 4.3 06:09:06 10° NNW 06:12:54 40° W 06:16:40 10° SSW
Cosmos 1633 Rocket 3.8 06:10:37 10° N 06:14:57 58° E 06:19:17 10° SSE
Delta 2 Rocket 3.3 06:17:25 10° WSW 06:21:04 67° SSE 06:25:13 10° ENE
ASTRO E2 4.2 06:19:53 10° WSW 06:22:49 19° SSW 06:25:46 10° SSE
Cosmos 304 Rocket 4.1 06:21:47 10° SSW 06:26:26 50° WNW 06:31:07 10° N
